Bournemouth, United Kingdom

2:06 AM GMT on February 07, 2016 (GMT +0000)
Bournemouth

Weather History for EGHH - August, 2013

Change the Weather History Date:

Wednesday, August 21, 2013

  Actual Average Record
Temperature  
Mean Temperature 58 °F -  
Max Temperature 72 °F 66 °F 75 °F (2005)
Min Temperature 45 °F 49 °F 36 °F (2014)
Degree Days  
Heating Degree Days 6    
Growing Degree Days 8 (Base 50)    
Moisture  
Dew Point 53 °F    
Average Humidity 77    
Maximum Humidity 100    
Minimum Humidity 46    
Precipitation  
Precipitation 0.01 in 0.08 in - ()
Sea Level Pressure  
Sea Level Pressure 30.23 in    
Wind  
Wind Speed 4 mph ()    
Max Wind Speed 12 mph    
Max Gust Speed -    
Visibility 6.6 miles    
Events Fog , Rain    
Averages and records for this station are not official NWS values.
T = Trace of Precipitation, MM = Missing Value Source: Averaged Metar Reports

Daily Weather History Graph

Daily Weather History Graph

Search for Another Location

Airport or City:

Trip Planner

Search our weather history database for the weather conditions in past years. The results will help you decide how hot, cold, wet, or windy it might be!

Date:

Astronomy

Aug. 21, 2013 Rise Set
Actual Time 6:04 AM BST 8:15 PM BST
Civil Twilight 5:28 AM BST 8:51 PM BST
Nautical Twilight 4:43 AM BST 9:35 PM BST
Astronomical Twilight 3:51 AM BST 10:26 PM BST
Moon 8:02 PM BST (8/21) 6:36 AM BST (8/21)
Length of Visible Light 15h 22m
Length of Day
14h 11m
Full, 100% of the Moon is Illuminated
Aug 21
Full
Aug 28
Last Quarter
Sep 5
New
Sep 12
First Quarter
Sep 19
Full

Hourly Weather History & Observations

Time (BST) Temp. Dew Point Humidity Pressure Visibility Wind Dir Wind Speed Gust Speed Precip Events Conditions
12:20 AM 51.8 °F 50.0 °F 94% 30.33 in - Calm Calm - N/A   Clear
12:50 AM 51 °F 49 °F 90% 30.33 in 11 mi NNE 2.3 mph - -  
12:50 AM 51.8 °F 50.0 °F 94% 30.30 in - North 3.5 mph - N/A   Clear
1:20 AM 50.0 °F 48.2 °F 94% 30.30 in - NNW 3.5 mph - N/A   Clear
1:50 AM 51.8 °F 50.0 °F 94% 30.30 in - NNW 2.3 mph - N/A   Clear
2:20 AM 50.0 °F 48.2 °F 94% 30.30 in 6.2 mi NW 2.3 mph - N/A   Mist
2:50 AM 50.0 °F 50.0 °F 100% 30.30 in 6.2 mi SSE 1.2 mph - N/A   Mist
4:50 AM 46.4 °F 46.4 °F 100% 30.27 in 1.1 mi NNW 2.3 mph - N/A   Mist
5:20 AM 46.4 °F 46.4 °F 100% 30.27 in 2.5 mi North 2.3 mph - N/A Fog Mist
5:50 AM 46.4 °F 46.4 °F 100% 30.27 in 0.6 mi NNE 1.2 mph - N/A   Unknown
6:20 AM 46.4 °F 44.6 °F 93% 30.27 in 0.4 mi ESE 1.2 mph - N/A Fog Fog
6:50 AM 48 °F 47 °F 96% 30.29 in 3 mi North 4.6 mph - - Fog Fog
6:50 AM 48.2 °F 48.2 °F 100% 30.27 in 0.6 mi North 4.6 mph - N/A   Partly Cloudy
7:50 AM 50.0 °F 50.0 °F 100% 30.27 in 5.0 mi Calm Calm - N/A   Partly Cloudy
8:20 AM 53.6 °F 53.6 °F 100% 30.27 in 0.9 mi Calm Calm - N/A   Scattered Clouds
8:50 AM 55.4 °F 55.4 °F 100% 30.27 in 2.5 mi WNW 2.3 mph - N/A   Scattered Clouds
9:20 AM 60.8 °F 57.2 °F 88% 30.27 in 6.2 mi SW 2.3 mph - N/A   Partly Cloudy
9:50 AM 64 °F 57 °F 71% 30.28 in 13 mi SSW 2.3 mph - -   Scattered Clouds
9:50 AM 64.4 °F 57.2 °F 77% 30.27 in 6.2 mi Variable 2.3 mph - N/A   Partly Cloudy
10:20 AM 66.2 °F 55.4 °F 68% 30.27 in 6.2 mi WSW 4.6 mph - N/A   Partly Cloudy
11:20 AM 69.8 °F 51.8 °F 53% 30.27 in - West 5.8 mph - N/A   Clear
11:50 AM 69.8 °F 55.4 °F 60% 30.24 in - SW 4.6 mph - N/A   Clear
12:20 PM 69.8 °F 57.2 °F 64% 30.24 in - South 6.9 mph - N/A   Clear
12:50 PM 70 °F 56 °F 52% 30.25 in 19 mi South 10.4 mph - -  
12:50 PM 69.8 °F 55.4 °F 60% 30.24 in - South 10.4 mph - N/A   Clear
1:20 PM 69.8 °F 55.4 °F 60% 30.21 in - South 11.5 mph - N/A   Clear
1:50 PM 68.0 °F 51.8 °F 56% 30.21 in - South 10.4 mph - N/A   Clear
2:20 PM 71.6 °F 53.6 °F 53% 30.21 in - South 10.4 mph - N/A   Clear
2:50 PM 69.8 °F 55.4 °F 60% 30.21 in - South 11.5 mph - N/A   Clear
3:20 PM 71.6 °F 55.4 °F 57% 30.21 in - South 11.5 mph - N/A   Clear
3:50 PM 71 °F 54 °F 46% 30.22 in 19 mi South 10.4 mph - -  
3:50 PM 71.6 °F 55.4 °F 57% 30.21 in - South 9.2 mph - N/A   Clear
4:20 PM 69.8 °F 55.4 °F 60% 30.21 in - South 11.5 mph - N/A   Clear
4:50 PM 69.8 °F 55.4 °F 60% 30.18 in - South 11.5 mph - N/A   Clear
5:20 PM 69.8 °F 55.4 °F 60% 30.18 in - South 10.4 mph - N/A   Clear
5:50 PM 68.0 °F 55.4 °F 64% 30.18 in - South 10.4 mph - N/A   Clear
6:20 PM 68.0 °F 55.4 °F 64% 30.18 in - South 6.9 mph - N/A   Clear
6:50 PM 67 °F 56 °F 59% 30.19 in 19 mi South 5.8 mph - -   Partly Cloudy
6:50 PM 68.0 °F 55.4 °F 64% 30.18 in - South 5.8 mph - N/A   Clear
7:20 PM 66.2 °F 55.4 °F 68% 30.18 in - South 4.6 mph - N/A   Clear
7:50 PM 66.2 °F 55.4 °F 68% 30.18 in - SW 3.5 mph - N/A   Clear
8:20 PM 64.4 °F 55.4 °F 73% 30.18 in 6.2 mi WSW 4.6 mph - N/A   Partly Cloudy
8:50 PM 62.6 °F 55.4 °F 77% 30.18 in 6.2 mi West 4.6 mph - N/A   Partly Cloudy
9:20 PM 60.8 °F 55.4 °F 82% 30.18 in 6.2 mi West 4.6 mph - N/A   Partly Cloudy
9:50 PM 62.6 °F 55.4 °F 77% 30.15 in - West 1.2 mph - N/A   Clear
10:20 PM 60.8 °F 57.2 °F 88% 30.15 in 6.2 mi WNW 2.3 mph - N/A Rain Light Rain
10:50 PM 60.8 °F 57.2 °F 88% 30.18 in 6.2 mi West 8.1 mph - N/A Rain Light Rain
11:20 PM 60.8 °F 57.2 °F 88% 30.15 in - South 1.2 mph - N/A   Clear
11:50 PM 60.8 °F 59.0 °F 94% 30.15 in 6.2 mi NNE 2.3 mph - N/A Rain Light Rain